Simultaneous Nadir Overpasses (SNOs) Predictions

Prediction of SNOs between GOES-17 and METOP-A Satellite Orbit:

Table of predicted SNOs for the next 14.0 days since TLE Epoch: 5/2/2020
Index Date Time (GOES-17) GOES-17 Lat,Lon METOP-A Lat,Lon Distance(km) Time Diff (sec)
1 05/02/2020 06:00:37 -0.03,-137.19 -0.38,-138.77 179.87 80
2 05/03/2020 05:37:18 -0.03,-137.19 0.73,-133.79 387.16 80
3 05/04/2020 17:56:09 0.03,-137.19 0.30,-138.38 135.66 80
4 05/05/2020 17:38:10 0.03,-137.19 -0.81,-133.40 431.15 80
5 05/07/2020 05:57:10 -0.03,-137.17 -0.23,-138.03 98.56 80
6 05/08/2020 05:33:51 -0.03,-137.16 0.88,-133.05 467.70 80
7 05/09/2020 17:52:42 0.02,-137.15 0.15,-137.64 56.60 80
8 05/12/2020 05:53:43 -0.01,-137.10 -0.07,-137.29 21.63 80
9 05/14/2020 17:51:55 0.00,-137.07 -0.01,-136.90 19.08 80




NCC Satellite Simultaneous Nadir Overpasses (SNOs) Prediction Service
